Stations météo

réclame
Mon MeteoGroup
Valdepena, Espagne (8351): Température de l'air & dewpoint: 15.10.2017 05:00:00 - 21.10.2017 05:00:00 (CEST)Valdepena, Espagne (8351): Vitesse du vent & gusts: 15.10.2017 05:00:00 - 21.10.2017 05:00:00 (CEST)Valdepena, Espagne (8351): Direction du vent: 15.10.2017 05:00:00 - 21.10.2017 05:00:00 (CEST)Valdepena, Espagne (8351): reduced air pressure: 15.10.2017 05:00:00 - 21.10.2017 05:00:00 (CEST)Valdepena, Espagne (8351): visibility: 15.10.2017 05:00:00 - 21.10.2017 05:00:00 (CEST)Valdepena, Espagne (8351): Ensoleillement: 15.10.2017 05:00:00 - 21.10.2017 05:00:00 (CEST)Valdepena, Espagne (8351): Quantités de précipitations: 15.10.2017 05:00:00 - 21.10.2017 05:00:00 (CEST)
Date & Time tt [°C] td [°C] ff [km/h] ff [knt] fx [km/h] fx [knt] dd ppp [hPa] vv [km] sd [min] rr [mm]
21.10.2017 05:00:00 - - - - - - - - - - -
21.10.2017 04:00:00 11,9 9,9 1 1 8 4 NW 1023,2 4,3 0 0,0
21.10.2017 03:00:00 12,2 10,3 2 1 8 4 E 1023,6 4,7 0 0,0
21.10.2017 02:00:00 12,4 10,2 2 1 7 4 ESE 1023,5 4,8 0 -
21.10.2017 01:00:00 13,2 10,9 4 2 8 4 SE 1023,5 4,8 0 0,0
21.10.2017 00:00:00 13,4 10,8 3 2 8 5 SE 1023,4 4,7 0 0,0
20.10.2017 23:00:00 14,1 11,2 6 3 10 6 SE 1023,1 4,7 0 0,0
20.10.2017 22:00:00 15,2 11,3 6 3 13 7 SSE 1022,2 4,7 0 0,0
20.10.2017 21:00:00 15,2 11,2 4 2 8 5 E 1021,5 4,5 0 0,0
20.10.2017 20:00:00 16,2 11,1 4 2 7 4 E 1021,0 4,6 6 -
20.10.2017 19:00:00 18,1 11,4 4 2 12 6 SSE 1020,0 4,6 7 0,0
20.10.2017 18:00:00 18,0 11,8 6 3 15 8 SE 1020,1 4,1 59 0,0
20.10.2017 17:00:00 17,5 12,0 5 3 14 8 ESE 1020,4 4,1 17 0,0
20.10.2017 16:00:00 16,5 12,0 3 2 12 6 SW 1020,9 4,7 0 0,0
20.10.2017 15:00:00 16,5 11,9 3 2 15 8 SW 1020,8 4,4 0 0,0
20.10.2017 14:00:00 15,9 11,4 5 3 13 7 SW 1021,1 4,4 0 -
20.10.2017 13:00:00 14,9 11,1 6 4 13 7 SSE 1022,0 4,3 0 0,0
20.10.2017 12:00:00 14,3 10,8 5 3 11 6 SSE 1021,6 3,9 0 0,0
20.10.2017 11:00:00 13,3 10,6 5 3 13 7 SSE 1021,6 4,6 0 0,0
20.10.2017 10:00:00 12,7 10,4 6 3 13 7 SE 1021,1 3,7 0 0,0
20.10.2017 09:00:00 12,5 10,4 3 2 10 5 SSW 1020,3 4,3 0 0,0
20.10.2017 08:00:00 12,2 10,0 6 3 11 6 SSE 1019,6 4,1 0 -
20.10.2017 07:00:00 11,6 9,7 3 2 8 5 E 1019,2 4,7 0 0,0
20.10.2017 06:00:00 11,8 9,3 3 2 9 5 SSW 1018,4 5 0 0,0
20.10.2017 05:00:00 11,6 8,8 3 2 11 6 E 1018,5 5 0 0,0
20.10.2017 04:00:00 11,9 8,9 4 2 12 6 SSE 1018,6 5 0 0,0
20.10.2017 03:00:00 12,3 8,4 4 2 11 6 SSW 1018,4 5 0 0,0
20.10.2017 02:00:00 13,0 7,7 4 2 13 7 SSW 1018,0 5 0 -
20.10.2017 01:00:00 12,6 7,7 5 3 14 8 SSW 1018,0 5 0 0,0
20.10.2017 00:00:00 11,9 6,8 6 3 12 7 S 1017,8 5 0 0,0
19.10.2017 23:00:00 11,7 6,8 6 3 10 6 SSE 1017,5 5 0 0,0
19.10.2017 22:00:00 12,4 6,8 5 3 11 6 SSE 1016,6 5 0 0,0
19.10.2017 21:00:00 13,3 6,7 4 2 11 6 SW 1015,5 5 0 0,0
19.10.2017 20:00:00 14,5 5,8 4 2 19 10 WSW 1014,5 4,9 4 -
19.10.2017 19:00:00 16,4 5,3 7 4 23 12 WSW 1013,1 5 3 0,0
19.10.2017 18:00:00 16,9 5,1 7 4 23 12 WSW 1012,2 4,6 54 0,0
19.10.2017 17:00:00 16,7 5,6 9 5 21 11 WSW 1012,0 5 51 0,0
19.10.2017 16:00:00 16,5 5,5 7 4 26 14 WSW 1012,0 5 60 0,0
19.10.2017 15:00:00 16,4 6,2 6 3 19 10 WSW 1012,4 4,7 54 0,0
19.10.2017 14:00:00 15,6 7,6 7 4 17 9 SSW 1013,0 4,8 46 -
19.10.2017 13:00:00 14,5 8,7 4 2 11 6 SW 1013,2 4,8 45 0,0
19.10.2017 12:00:00 12,8 8,9 5 3 13 7 WSW 1013,5 4,7 29 0,0
19.10.2017 11:00:00 11,8 9,7 6 3 10 6 S 1013,7 4,5 35 0,0
19.10.2017 10:00:00 10,1 8,9 2 1 6 3 S 1013,7 4,8 8 0,0
19.10.2017 09:00:00 8,3 7,0 2 1 13 7 N 1013,7 5 0 0,0
19.10.2017 08:00:00 7,7 6,4 5 3 10 6 N 1013,2 5 0 -
19.10.2017 07:00:00 8,5 7,0 3 2 8 5 N 1012,6 5 0 0,0
19.10.2017 06:00:00 8,9 7,6 3 2 6 3 S 1012,4 5 0 0,0
19.10.2017 05:00:00 8,8 7,3 2 1 8 5 SE 1012,6 5 0 0,2
19.10.2017 04:00:00 8,9 7,1 2 1 6 3 E 1013,1 5 0 0,0
19.10.2017 03:00:00 9,4 7,6 2 1 5 3 N 1013,4 5 0 0,0
19.10.2017 02:00:00 10,1 8,0 4 2 7 4 SE 1013,5 5 0 -
19.10.2017 01:00:00 9,7 7,8 3 1 8 4 SE 1014,1 6 0 0,0
19.10.2017 00:00:00 10,1 8,3 4 2 9 5 S 1014,1 6 0 0,0
18.10.2017 23:00:00 10,8 8,8 4 2 13 7 SE 1014,0 5 0 0,0
18.10.2017 22:00:00 11,0 8,8 5 3 21 11 SE 1013,9 6 0 1,2
18.10.2017 21:00:00 12,2 9,8 4 2 14 7 SW 1013,5 3,8 0 0,4
18.10.2017 20:00:00 12,0 9,2 4 2 13 7 SE 1012,7 6 0 -
18.10.2017 19:00:00 12,6 9,4 8 5 25 13 SSW 1012,3 6 0 0,6
18.10.2017 18:00:00 14,6 9,2 5 3 25 14 SW 1011,2 5 15 0,0
18.10.2017 17:00:00 15,5 8,5 9 5 26 14 SSW 1010,9 5 30 0,0
18.10.2017 16:00:00 14,2 10,0 10 5 25 13 SW 1011,7 5 14 0,6
18.10.2017 15:00:00 12,6 10,6 8 4 32 17 SW 1012,7 1,8 12 1,8
18.10.2017 14:00:00 15,7 11,2 17 9 38 21 S 1011,5 4,9 17 -
18.10.2017 13:00:00 14,3 11,8 14 8 35 19 SSE 1012,4 5 0 0,0
18.10.2017 12:00:00 13,4 11,7 13 7 27 15 SSE 1013,3 6 0 1,6
18.10.2017 11:00:00 13,1 11,3 12 6 24 13 SSE 1013,7 3,3 0 3,0
18.10.2017 10:00:00 13,1 11,1 11 6 22 12 SSE 1014,1 3,7 0 2,2
18.10.2017 09:00:00 13,7 10,5 10 5 26 14 SSE 1013,6 4,5 0 0,0
18.10.2017 08:00:00 13,5 10,2 13 7 37 20 SSE 1013,5 5 0 -
18.10.2017 07:00:00 13,5 10,3 20 11 41 22 SSE 1013,9 4,2 0 0,0
18.10.2017 06:00:00 13,9 10,5 18 10 40 21 SSE 1014,1 3,6 0 0,0
18.10.2017 05:00:00 14,6 12,1 11 6 32 17 SE 1014,8 3,8 0 0,2
18.10.2017 04:00:00 15,1 12,2 5 3 25 13 S 1015,5 4,5 0 0,0
18.10.2017 03:00:00 15,0 11,8 5 3 8 5 SE 1016,1 4,0 0 0,0
18.10.2017 02:00:00 15,2 11,0 4 2 16 8 S 1016,4 4,5 0 -
18.10.2017 01:00:00 15,5 11,3 3 2 13 7 ESE 1016,3 4,6 0 0,0
18.10.2017 00:00:00 14,7 11,4 4 2 10 5 SSE 1018,3 4,8 0 0,0
17.10.2017 23:00:00 15,1 11,7 1 1 6 3 SSE 1018,0 5 0 0,0
17.10.2017 22:00:00 15,1 12,0 2 1 8 4 SW 1018,0 5 0 2,0
17.10.2017 21:00:00 15,3 11,9 3 2 52 28 ESE 1018,0 5 0 0,2
17.10.2017 20:00:00 19,6 8,3 4 2 9 5 SSW 1017,7 4,2 0 -
17.10.2017 19:00:00 20,0 7,7 4 2 18 10 S 1017,3 4,2 0 0,0
17.10.2017 18:00:00 20,5 7,1 6 3 32 17 SW 1017,4 4,3 0 0,0
17.10.2017 17:00:00 22,4 5,3 15 8 36 19 SSW 1016,9 4,3 0 0,0
17.10.2017 16:00:00 23,9 4,3 11 6 32 17 S 1016,1 4,1 0 0,0
17.10.2017 15:00:00 24,4 4,6 8 4 19 10 SSE 1016,6 4,3 46 0,0
17.10.2017 14:00:00 23,5 5,8 3 1 16 8 NW 1018,2 4,2 14 -
17.10.2017 13:00:00 21,0 6,5 8 5 20 11 S 1019,7 4,4 0 0,0
17.10.2017 12:00:00 20,1 6,4 4 2 23 13 SE 1019,7 4,2 0 0,0
17.10.2017 11:00:00 17,7 9,0 6 4 18 10 ESE 1020,9 4,2 0 0,0
17.10.2017 10:00:00 17,3 8,4 3 2 12 7 E 1021,3 4,4 0 0,0
17.10.2017 09:00:00 16,5 8,9 5 3 11 6 ENE 1020,8 4,4 0 0,0
17.10.2017 08:00:00 16,1 9,0 3 2 11 6 SSE 1020,6 4,3 0 -
17.10.2017 07:00:00 15,6 8,4 3 2 13 7 SE 1020,8 4,5 0 0,0
17.10.2017 06:00:00 15,1 5,8 3 1 9 5 SE 1021,3 4,3 0 0,0
17.10.2017 05:00:00 16,1 5,1 2 1 10 5 NE 1020,9 4,4 0 0,0
17.10.2017 04:00:00 16,9 4,3 3 1 11 6 SSE 1021,4 4,4 0 0,0
17.10.2017 03:00:00 17,7 3,9 4 2 15 8 E 1021,4 4,5 0 0,0
17.10.2017 02:00:00 17,4 2,9 4 2 11 6 ESE 1021,7 4,4 0 -
17.10.2017 01:00:00 16,4 0,0 5 3 16 9 ENE 1022,2 4,5 0 0,0
17.10.2017 00:00:00 16,7 2,7 12 6 21 11 NNE 1022,2 4,5 0 0,0
16.10.2017 23:00:00 18,7 2,1 8 5 19 10 NNE 1021,7 4,6 0 0,0
16.10.2017 22:00:00 20,4 1,3 9 5 17 9 NE 1020,9 4,5 0 0,0
16.10.2017 21:00:00 22,4 1,9 5 3 8 5 N 1020,1 4,3 0 0,0
16.10.2017 20:00:00 24,2 1,1 3 2 15 8 S 1019,5 4,4 0 -
16.10.2017 19:00:00 27,1 -1,7 2 1 13 7 W 1018,3 4,4 0 0,0
16.10.2017 18:00:00 27,2 -2,7 5 3 17 9 WNW 1018,3 4,4 42 0,0
16.10.2017 17:00:00 28,4 -1,7 4 2 13 7 ENE 1018,4 4,5 60 0,0
16.10.2017 16:00:00 28,0 -2,0 6 3 15 8 NNW 1018,9 4,3 60 0,0
16.10.2017 15:00:00 28,1 -2,0 5 3 14 8 NNW 1019,5 4,8 60 0,0
16.10.2017 14:00:00 27,7 -1,2 4 2 10 5 NNE 1020,4 4,3 60 -
16.10.2017 13:00:00 26,8 0,4 4 2 11 6 SW 1021,2 4,8 60 0,0
16.10.2017 12:00:00 24,4 2,5 3 2 12 6 NE 1022,1 4,4 60 0,0
16.10.2017 11:00:00 20,2 3,4 5 3 15 8 NNE 1023,5 4,5 60 0,0
16.10.2017 10:00:00 15,0 4,1 11 6 19 10 NNE 1024,5 4,5 57 0,0
16.10.2017 09:00:00 13,2 4,3 5 3 13 7 NE 1024,5 4,5 0 0,0
16.10.2017 08:00:00 12,4 4,1 4 2 9 5 E 1024,3 4,4 0 -
16.10.2017 07:00:00 12,9 4,1 4 2 8 4 N 1023,7 4,6 0 0,0
16.10.2017 06:00:00 13,4 3,4 1 1 5 3 SE 1023,4 4,4 0 0,0
16.10.2017 05:00:00 15,1 4,1 1 1 11 6 E 1022,8 4,5 0 0,0
16.10.2017 04:00:00 15,7 3,2 1 1 13 7 N 1022,8 4,4 0 0,0
16.10.2017 03:00:00 17,0 2,5 8 4 15 8 NNE 1022,7 4,5 0 0,0
16.10.2017 02:00:00 19,0 2,3 4 2 13 7 ESE 1022,4 4,6 0 -
16.10.2017 01:00:00 20,1 1,9 4 2 10 5 ESE 1022,0 4,5 0 0,0
16.10.2017 00:00:00 20,2 0,6 3 1 12 6 E 1022,1 4,4 0 0,0
15.10.2017 23:00:00 21,5 0,6 2 1 8 5 SE 1021,6 4,5 0 0,0
15.10.2017 22:00:00 23,6 0,6 3 2 14 8 ESE 1020,3 4,4 0 0,0
15.10.2017 21:00:00 24,8 1,7 3 2 10 5 S 1019,4 4,4 0 0,0
15.10.2017 20:00:00 26,6 4,3 3 2 8 4 SSW 1018,6 4,5 0 -
15.10.2017 19:00:00 28,5 2,7 3 2 7 4 N 1017,7 4,5 1 0,0
15.10.2017 18:00:00 29,4 0,0 3 1 9 5 E 1017,5 4,3 33 0,0
15.10.2017 17:00:00 29,1 0,6 3 2 16 9 S 1017,9 4,2 28 0,0
15.10.2017 16:00:00 30,2 1,7 5 3 18 10 NW 1018,0 4,4 60 0,0
15.10.2017 15:00:00 29,1 1,5 6 3 15 8 W 1019,1 4,4 60 0,0
15.10.2017 14:00:00 28,4 2,5 5 3 13 7 NW 1020,3 4,2 60 -
15.10.2017 13:00:00 26,9 2,7 4 2 10 5 N 1021,6 4,3 60 0,0
15.10.2017 12:00:00 23,5 2,9 5 3 10 6 NNW 1022,8 4,2 60 0,0
15.10.2017 11:00:00 21,6 3,2 3 2 12 7 NNW 1023,7 4,0 60 0,0
15.10.2017 10:00:00 17,8 2,5 5 3 10 5 NNE 1024,4 4,1 56 0,0
15.10.2017 09:00:00 13,9 2,1 2 1 14 7 S 1025,2 4,2 0 0,0
15.10.2017 08:00:00 14,6 1,9 2 1 16 9 NNW 1024,7 4,3 0 -
15.10.2017 07:00:00 15,4 1,5 11 6 17 9 NNE 1024,5 4,3 0 0,0
15.10.2017 06:00:00 14,8 1,3 1 1 7 4 N 1024,5 4,4 0 0,0
15.10.2017 05:00:00 16,0 0,4 1 1 16 9 W 1024,0 4,4 0 0,0

tt = Température de l'air
td = dewpoint
ff = Vitesse du vent
fx = gusts
dd = Direction du vent
ppp = reduced air pressure
vv = visibility
sd = Ensoleillement
rr = Quantités de précipitations

stations d'obs. à proximité